Weather History for Dodge City, KS

Change the Weather History Date:

Saturday, December 1, 2012

  Actual Average Record
Temperature  
Mean Temperature 45 °F -  
Max Temperature 54 °F 48 °F 75 °F (1917)
Min Temperature 36 °F 25 °F 0 °F (1985)
Degree Days  
Heating Degree Days 20    
Moisture  
Dew Point 37 °F    
Average Humidity 79    
Maximum Humidity 93    
Minimum Humidity 47    
Precipitation  
Precipitation 0.00 in - - ()
Sea Level Pressure  
Sea Level Pressure 29.84 in    
Wind  
Wind Speed 8 mph (West)    
Max Wind Speed 20 mph    
Max Gust Speed 24 mph    
Visibility 6 miles    
Events      
Averages and records for this station are not official NWS values.
T = Trace of Precipitation, MM = Missing Value Source: NWS Daily Summary

Daily Weather History Graph

Daily Weather History Graph

Search for Another Location

Airport:

Trip Planner

Search our weather history database for the weather conditions in past years. The results will help you decide how hot, cold, wet, or windy it might be!

Date:

Astronomy

Dec. 01, 2012 Rise Set
Actual Time 7:36 AM CST 5:21 PM CST
Civil Twilight 7:08 AM CST 5:50 PM CST
Nautical Twilight 6:35 AM CST 6:22 PM CST
Astronomical Twilight 6:03 AM CST 6:54 PM CST
Moon 8:11 PM CST 9:51 AM CST
Length of Visible Light 10h 42m
Length of Day
9h 44m
Waning Gibbous, 91% of the Moon is Illuminated
Dec 1
Waning Gibbous
Dec 6
Last Quarter
Dec 13
New
Dec 19
First Quarter
Dec 28
Full

Hourly Weather History & Observations

Time (CST) Temp. Windchill Dew Point Humidity Pressure Visibility Wind Dir Wind Speed Gust Speed Precip Events Conditions
12:52 AM 43.0 °F 37.7 °F 39.9 °F 89% 29.82 in 5.0 mi South 9.2 mph - N/A   Clear
1:52 AM 44.1 °F 40.1 °F 41.0 °F 89% 29.79 in 5.0 mi South 6.9 mph - N/A   Clear
2:52 AM 44.1 °F 38.6 °F 41.0 °F 89% 29.77 in 5.0 mi SSE 10.4 mph - N/A   Clear
3:52 AM 44.1 °F 38.6 °F 39.9 °F 85% 29.74 in 5.0 mi SSE 10.4 mph - N/A   Clear
4:52 AM 41.0 °F 36.4 °F 39.0 °F 93% 29.75 in 4.0 mi SSW 6.9 mph - N/A   Clear
5:52 AM 39.9 °F 36.7 °F 37.9 °F 93% 29.75 in 5.0 mi SSW 4.6 mph - N/A   Clear
6:52 AM 37.9 °F - 36.0 °F 93% 29.75 in 3.0 mi Calm Calm - N/A   Clear
7:10 AM 37.4 °F 34.9 °F 35.6 °F 93% 29.74 in 2.5 mi SW 3.5 mph - N/A   Clear
7:41 AM 39.2 °F 33.0 °F 37.4 °F 93% 29.77 in 4.0 mi WSW 9.2 mph - N/A   Clear
7:52 AM 39.0 °F 36.8 °F 37.0 °F 93% 29.77 in 3.0 mi West 3.5 mph - N/A   Clear
8:02 AM 37.4 °F 34.9 °F 35.6 °F 93% 29.77 in 2.5 mi WSW 3.5 mph - N/A   Clear
8:20 AM 37.4 °F 33.8 °F 35.6 °F 93% 29.77 in 3.0 mi WSW 4.6 mph - N/A   Clear
8:52 AM 39.9 °F - 37.0 °F 89% 29.78 in 2.5 mi Calm Calm - N/A   Clear
9:14 AM 41.0 °F 36.4 °F 37.4 °F 87% 29.79 in 3.0 mi NNW 6.9 mph - N/A   Clear
9:52 AM 44.1 °F 40.8 °F 39.0 °F 82% 29.81 in 5.0 mi North 5.8 mph - N/A   Haze
10:52 AM 48.0 °F - 39.0 °F 71% 29.84 in 7.0 mi NNW 10.4 mph - N/A   Clear
11:52 AM 50.0 °F - 36.0 °F 59% 29.85 in 7.0 mi NNW 16.1 mph 23.0 mph N/A   Clear
12:52 PM 46.9 °F - 37.9 °F 71% 29.85 in 7.0 mi North 19.6 mph 24.2 mph N/A   Clear
1:22 PM 46.4 °F 40.1 °F 39.2 °F 76% 29.85 in 7.0 mi NNW 15.0 mph - N/A   Partly Cloudy
1:35 PM 46.4 °F 40.4 °F 39.2 °F 76% 29.85 in 6.0 mi North 13.8 mph - N/A   Haze
1:52 PM 48.9 °F - 39.9 °F 71% 29.85 in 7.0 mi North 11.5 mph - N/A   Scattered Clouds
2:52 PM 52.0 °F - 41.0 °F 66% 29.85 in 8.0 mi NNW 9.2 mph - N/A   Clear
3:52 PM 54.0 °F - 39.9 °F 59% 29.87 in 9.0 mi North 8.1 mph - N/A   Clear
4:52 PM 53.1 °F - 39.0 °F 59% 29.89 in 9.0 mi Calm Calm - N/A   Clear
5:52 PM 43.0 °F 40.3 °F 36.0 °F 76% 29.93 in 9.0 mi WNW 4.6 mph - N/A   Clear
6:52 PM 42.1 °F 40.2 °F 35.1 °F 76% 29.96 in 9.0 mi West 3.5 mph - N/A   Clear
7:52 PM 41.0 °F 35.8 °F 34.0 °F 76% 29.97 in 9.0 mi West 8.1 mph - N/A   Clear
8:52 PM 45.0 °F 41.8 °F 35.1 °F 68% 29.97 in 10.0 mi WNW 5.8 mph - N/A   Clear
9:52 PM 44.1 °F 41.5 °F 35.1 °F 71% 29.98 in 10.0 mi West 4.6 mph - N/A   Clear
10:52 PM 42.1 °F 40.2 °F 34.0 °F 73% 29.99 in 10.0 mi WSW 3.5 mph - N/A   Clear
11:52 PM 41.0 °F 36.4 °F 32.0 °F 70% 29.99 in 10.0 mi SSW 6.9 mph - N/A   Clear